Location: Franzen
(48.6167°N, 15.3833°E)
Time: 13:06:20
(UTC+00:00)

Cosmos 1842 Rocket - Pass Details

Date: 22 April 2021
Orbit: 606 x 633 km, 82.5° (Epoch: 16 May)

Event Time Altitude Azimuth Distance (km) Brightness Sun altitude
Exits shadow 21:20:26 44° 254° (WSW) 875 4.3 -25.3°
Maximum altitude 21:21:08 48° 284° (WNW) 823 4.3 -25.3°
Drops below altitude 10° 21:25:30 10° 360° (N) 2,025 7.0 -25.6°
Sets 21:27:49 0° 6° (N) 2,940 8.0 -25.8°
